{"data":{"norad_id":53658,"epoch":"2026-09-20T21:27:39.039840Z","epoch_age_seconds":47473,"freshness":"FRESH","line1":"1 53658U 22105L   26263.89420185  .00001458  00000+0  47479-4 0  9995","line2":"2 53658  97.2847 140.5651 0001620  90.8699 269.2729 15.33438771222799","mean_motion":15.33438771,"eccentricity":0.000162,"inclination_deg":97.2847,"raan_deg":140.5651,"arg_perigee_deg":90.8699,"mean_anomaly_deg":269.2729,"bstar":4.7479e-5,"rev_number":22279,"period_min":93.906586114354,"perigee_km":464.45302847175,"apogee_km":466.67038685303,"semimajor_km":6843.6987076624,"source":"CELESTRAK","updated_at":"2026-09-21T09:00:32.951217Z"}}